Location: San Gennaro Vesuviano
(40.8833°N, 14.5333°E)
Time: 22:22:18
(UTC+00:00)

USA 245 - Pass Details

Date: 22 April 2021
Orbit: 267 x 985 km, 97.9° (Epoch: 06 May)

Event Time Altitude Azimuth Distance (km) Brightness Sun altitude
Exits shadow 20:05:51 43° 12° (NNE) 668 3.9 -23.1°
Drops below altitude 10° 20:08:05 10° 354° (N) 1,507 6.2 -23.4°
Sets 20:09:52 0° 351° (N) 2,278 7.3 -23.7°
